カタログに戻る

FENGYUN 1C DEB

運用中SSO
NORAD 30320·DEBRIS·🇨🇳 China

打ち上げ May 10, 1999 から Taiyuan Satellite Launch Center

Loading…

次のパス (今後24時間)

TLE

最新Source: Space-Track

元期: Sep 14, 2026, 15:53 UTC

1 30320U 99025AAH 26257.66244698 -.00000057  00000-0 -79340-5 0  9992
2 30320  99.1540 321.9323 0084937 257.9217 256.6546 13.98697757  2531

AllMySatでFENGYUN 1C DEBをリアルタイム追跡

Download on the App Store